Weather History for Douglas, WY

Change the Weather History Date:

Wednesday, January 9, 2013

  Actual Average Record
Temperature  
Mean Temperature 42 °F 25 °F  
Max Temperature 59 °F 39 °F 67 °F (2003)
Min Temperature 24 °F 11 °F -5 °F (2011)
Degree Days  
Heating Degree Days 23 40  
Month to date heating degree days 370 362  
Since 1 July heating degree days 3091 3451  
Cooling Degree Days 0 0  
Month to date cooling degree days 0 0  
Year to date cooling degree days 0 0  
Moisture  
Dew Point 17 °F    
Average Humidity 46    
Maximum Humidity 74    
Minimum Humidity 18    
Precipitation  
Precipitation 0.00 in 0.01 in 0.08 in (2011)
Month to date precipitation T 0.09  
Year to date precipitation T 0.09  
Sea Level Pressure  
Sea Level Pressure 30.09 in    
Wind  
Wind Speed 8 mph (SSW)    
Max Wind Speed 24 mph    
Max Gust Speed 30 mph    
Visibility 10 miles    
Events      
T = Trace of Precipitation, MM = Missing Value Source: NWS Daily Summary

Daily Weather History Graph

Daily Weather History Graph

Search for Another Location

Airport:

Trip Planner

Search our weather history database for the weather conditions in past years. The results will help you decide how hot, cold, wet, or windy it might be!

Date:

Astronomy

Jan. 09, 2013 Rise Set
Actual Time 7:31 AM MST 4:46 PM MST
Civil Twilight 6:59 AM MST 5:18 PM MST
Nautical Twilight 6:24 AM MST 5:53 PM MST
Astronomical Twilight 5:50 AM MST 6:27 PM MST
Moon 5:13 AM MST (1/9) 2:50 PM MST (1/9)
Length of Visible Light 10h 18m
Length of Day
9h 15m
Waning Crescent, 6% of the Moon is Illuminated
Jan 9
Waning Crescent
Jan 11
New
Jan 18
First Quarter
Jan 26
Full
Feb 3
Last Quarter

Hourly Weather History & Observations

Time (MST) Temp. Windchill Dew Point Humidity Pressure Visibility Wind Dir Wind Speed Gust Speed Precip Events Conditions
12:53 AM 36.0 °F 28.5 °F 19.9 °F 52% 30.18 in 10.0 mi WSW 10.4 mph - N/A   Clear
1:53 AM 36.0 °F 31.1 °F 19.9 °F 52% 30.19 in 10.0 mi West 5.8 mph - N/A   Clear
2:53 AM 36.0 °F 26.3 °F 21.0 °F 55% 30.20 in 10.0 mi WSW 16.1 mph - N/A   Clear
3:53 AM 37.0 °F 28.1 °F 19.9 °F 50% 30.18 in 10.0 mi WNW 15.0 mph 29.9 mph N/A   Clear
4:53 AM 34.0 °F 28.0 °F 19.9 °F 56% 30.18 in 10.0 mi WNW 6.9 mph - N/A   Clear
5:53 AM 36.0 °F 28.5 °F 19.9 °F 52% 30.18 in 10.0 mi WNW 10.4 mph 19.6 mph N/A   Clear
6:53 AM 30.0 °F 24.1 °F 18.0 °F 61% 30.25 in 10.0 mi North 5.8 mph - N/A   Clear
7:53 AM 24.1 °F 18.2 °F 17.1 °F 75% 30.29 in 10.0 mi North 4.6 mph - N/A   Clear
8:53 AM 37.0 °F - 23.0 °F 57% 30.23 in 10.0 mi Calm Calm - N/A   Clear
9:53 AM 44.1 °F 41.5 °F 21.0 °F 40% 30.20 in 10.0 mi East 4.6 mph - N/A   Clear
10:53 AM 52.0 °F - 19.0 °F 27% 30.15 in 10.0 mi SW 9.2 mph - N/A   Clear
11:53 AM 57.0 °F - 17.1 °F 21% 30.06 in 10.0 mi West 11.5 mph - N/A   Clear
12:53 PM 57.0 °F - 16.0 °F 20% 30.04 in 10.0 mi SW 5.8 mph - N/A   Clear
1:53 PM 57.0 °F - 18.0 °F 22% 30.02 in 10.0 mi South 6.9 mph - N/A   Clear
2:53 PM 57.0 °F - 18.0 °F 22% 30.01 in 10.0 mi SSE 11.5 mph - N/A   Clear
3:53 PM 55.0 °F - 12.9 °F 19% 30.01 in 10.0 mi South 10.4 mph - N/A   Clear
4:53 PM 44.1 °F 39.5 °F 12.9 °F 28% 30.03 in 10.0 mi SSE 8.1 mph - N/A   Clear
5:53 PM 45.0 °F 39.3 °F 15.1 °F 30% 30.00 in 10.0 mi South 11.5 mph - N/A   Clear
6:53 PM 37.9 °F 32.7 °F 14.0 °F 38% 30.04 in 10.0 mi ESE 6.9 mph - N/A   Clear
7:53 PM 35.1 °F 30.1 °F 14.0 °F 42% 30.04 in 10.0 mi SSE 5.8 mph - N/A   Clear
8:53 PM 37.0 °F 31.0 °F 15.1 °F 41% 29.97 in 10.0 mi ESE 8.1 mph - N/A   Clear
9:53 PM 39.0 °F 36.8 °F 12.9 °F 34% 29.93 in 10.0 mi SSE 3.5 mph - N/A   Clear
10:53 PM 30.9 °F 25.2 °F 15.1 °F 52% 29.91 in 10.0 mi ESE 5.8 mph - N/A   Clear
11:53 PM 30.9 °F - 15.1 °F 52% 29.87 in 10.0 mi Calm Calm - N/A   Clear